Date,TemperatureHighF,TemperatureAvgF,TemperatureLowF,DewpointHighF,DewpointAvgF,DewpointLowF,HumidityHigh,HumidityAvg,HumidityLow,PressureMaxIn,PressureMinIn,WindSpeedMaxMPH,WindSpeedAvgMPH,GustSpeedMaxMPH,PrecipitationSumIn
2012-6-24,106.5,87.6,79.9,54.0,48.9,40.6,40,29,11,29.33,29.27,6,2,7,0.00
2012-6-25,110.5,91.5,70.7,65.2,52.6,40.8,70,33,11,29.36,29.18,11,2,13,0.00
2012-6-26,111.0,93.3,75.4,67.2,56.6,46.3,60,34,13,29.24,29.12,12,4,15,0.00
2012-6-27,108.3,90.4,74.5,67.0,51.1,25.4,74,34,6,29.36,29.18,12,5,20,0.00
2012-6-28,102.9,88.8,75.4,61.7,51.2,34.2,62,32,10,29.47,29.36,19,6,24,0.00
2012-6-29,101.8,88.2,75.2,68.1,56.8,43.2,77,39,15,29.42,29.24,14,6,19,0.00
2012-6-30,102.4,86.6,72.0,68.5,60.2,39.6,79,46,13,29.33,29.18,18,6,23,0.00
2012-7-1,95.0,80.8,73.4,74.0,64.0,55.4,88,60,28,29.44,29.30,19,6,23,0.00
2012-7-2,96.6,82.9,75.2,70.4,64.9,56.0,79,57,28,29.53,29.36,15,7,20,0.00
2012-7-3,99.9,85.2,75.7,68.0,58.4,44.5,74,46,16,29.50,29.30,14,7,19,0.00
2012-7-4,99.9,86.0,73.6,70.5,59.0,43.5,89,47,17,29.44,29.30,17,7,21,0.00
2012-7-5,102.0,86.5,73.6,68.4,57.0,44.6,81,42,16,29.47,29.30,14,6,20,0.00
2012-7-6,104.7,88.6,72.7,65.5,55.3,43.9,70,37,15,29.47,29.36,14,4,15,0.00
2012-7-7,109.6,83.5,72.0,70.8,62.1,45.6,92,57,13,29.47,29.33,25,3,28,0.00
2012-7-8,105.6,81.3,71.4,76.4,69.2,51.6,98,73,24,29.47,29.30,15,3,20,0.00
2012-7-9,105.8,83.7,70.0,74.3,67.3,49.1,98,67,17,29.42,29.24,17,4,24,0.00
2012-7-10,97.5,80.1,70.0,75.2,67.0,57.2,98,70,30,29.42,29.24,8,3,11,0.00
2012-7-11,96.8,82.0,70.7,70.0,64.7,55.4,95,61,28,29.39,29.27,14,4,20,0.00
2012-7-12,100.0,81.7,70.2,72.7,65.3,53.7,96,63,25,29.39,29.30,11,3,15,0.00
2012-7-13,97.2,82.2,71.6,76.7,65.9,56.6,98,64,28,29.47,29.36,11,4,14,0.00
2012-7-14,99.9,82.5,70.0,74.0,64.4,54.6,96,62,24,29.47,29.36,19,3,28,0.00
2012-7-15,100.9,77.8,68.9,70.0,65.6,55.6,97,70,27,29.47,29.36,12,4,15,0.00
2012-7-16,94.8,81.6,68.7,72.6,65.4,57.4,98,62,31,29.47,29.33,15,6,17,0.00
2012-7-17,98.4,85.2,72.9,70.8,63.2,50.2,91,53,21,29.44,29.30,15,7,18,0.00
2012-7-18,101.8,86.8,73.6,71.6,63.0,51.4,91,51,21,29.47,29.30,12,6,14,0.00
2012-7-19,106.3,89.6,74.1,70.7,59.0,45.6,81,42,14,29.53,29.36,11,4,13,0.00
2012-7-20,112.6,89.5,75.4,68.4,57.5,33.0,73,40,7,29.50,29.33,12,4,18,0.00
2012-7-21,115.5,92.6,74.7,64.9,53.5,33.0,68,34,7,29.42,29.24,14,4,19,0.00
2012-7-22,103.8,88.4,75.4,70.7,60.2,47.4,84,44,16,29.47,29.33,16,7,22,0.00
2012-7-23,100.6,86.7,75.4,68.9,60.2,43.5,76,45,19,29.53,29.44,14,8,18,0.00
2012-7-24,99.5,86.3,74.5,70.0,61.9,49.3,86,49,21,29.50,29.33,16,8,23,0.00
2012-7-25,101.1,88.4,76.6,70.7,61.1,46.0,81,45,16,29.42,29.24,17,10,23,0.00
2012-7-26,101.8,88.5,76.8,68.7,60.9,50.6,76,43,20,29.36,29.21,16,8,25,0.00
2012-7-27,99.5,87.0,76.6,68.7,60.2,44.8,72,44,17,29.47,29.33,14,6,18,0.00
2012-7-28,110.7,91.4,75.2,68.0,55.4,32.8,74,37,8,29.53,29.36,11,4,17,0.00
2012-7-29,112.8,92.7,72.7,58.7,45.9,23.5,57,26,5,29.53,29.33,12,4,15,0.00
2012-7-30,110.1,92.1,76.8,62.4,51.3,32.8,58,29,8,29.47,29.30,12,4,15,0.00
2012-7-31,111.7,90.6,74.7,64.6,53.2,33.7,69,34,8,29.42,29.27,13,5,18,0.00
2012-8-1,108.7,92.4,77.9,65.7,52.8,33.8,65,31,9,29.42,29.21,14,7,19,0.00
2012-8-2,106.5,91.4,76.6,60.3,49.6,34.0,52,28,9,29.33,29.18,17,8,20,0.00
2012-8-3,103.6,90.0,75.0,62.6,54.4,39.0,64,34,12,29.33,29.18,16,9,21,0.00
2012-8-4,102.9,90.1,77.4,67.4,56.6,45.7,68,36,15,29.42,29.24,16,8,20,0.00
2012-8-5,109.6,92.0,77.2,67.0,56.8,34.1,67,35,8,29.56,29.36,16,4,20,0.00
2012-8-6,107.6,91.1,77.5,63.7,56.4,39.6,62,35,13,29.50,29.21,12,4,13,0.00
2012-8-7,114.1,90.2,77.4,72.0,55.9,33.0,77,39,7,29.42,29.24,17,3,19,0.00
2012-8-8,106.9,87.3,77.7,66.8,59.3,39.1,66,42,12,29.44,29.30,14,5,17,0.00
2012-8-9,111.6,90.1,71.8,69.3,55.4,33.0,85,40,7,29.44,29.18,11,5,13,0.00
2012-8-10,102.6,88.3,74.1,64.9,47.8,24.6,67,30,8,29.36,29.21,13,6,16,0.00
2012-8-11,106.9,85.6,67.3,49.6,37.8,24.5,45,23,6,29.42,29.27,8,4,9,0.00
2012-8-12,104.7,88.5,71.8,61.5,52.8,44.6,62,34,15,29.39,29.24,16,8,19,0.00
2012-8-13,106.2,92.5,79.2,61.8,43.3,25.5,54,24,6,29.42,29.21,11,6,11,0.00
2012-8-14,106.9,85.7,74.5,56.3,43.4,34.0,33,24,9,29.39,29.21,5,3,6,0.00
2012-8-15,104.9,104.9,104.9,34.7,34.7,34.7,9,9,9,29.24,29.21,4,4,4,0.00
2012-8-16,104.9,85.1,79.3,58.7,55.9,34.7,49,38,9,29.39,29.24,6,4,8,0.00
2012-8-17,107.1,86.0,72.3,70.8,61.9,47.9,94,50,16,29.44,29.24,33,6,43,0.00
2012-8-18,93.0,74.1,68.0,71.0,64.6,58.0,98,76,35,29.42,29.18,18,7,22,0.00
2012-8-19,98.1,80.5,65.3,71.7,58.8,44.8,98,56,19,29.42,29.24,5,2,6,0.00
2012-8-20,96.1,82.1,68.2,67.3,48.4,31.3,97,34,11,29.44,29.30,7,4,8,0.00
2012-8-21,88.9,72.9,66.4,67.3,58.4,50.0,97,62,29,29.50,29.36,8,2,8,0.00
2012-8-22,95.5,77.6,62.1,67.8,52.2,30.9,98,53,11,29.56,29.42,12,4,16,0.00
2012-8-23,98.1,80.4,65.5,64.6,54.2,42.9,77,45,16,29.50,29.36,12,4,14,0.00
2012-8-24,98.8,82.0,68.7,71.1,61.6,50.0,97,55,21,29.39,29.21,15,5,17,0.00
2012-8-25,96.6,83.7,76.6,70.0,63.2,48.6,80,54,22,29.36,29.24,17,10,23,0.00
2012-8-26,97.3,80.6,73.6,71.4,66.5,57.3,89,65,31,29.50,29.36,12,5,17,0.00
2012-8-27,101.7,84.2,71.8,78.8,66.5,55.2,98,62,22,29.50,29.30,9,3,11,0.00
2012-8-28,99.9,83.3,72.7,72.1,64.1,54.0,89,56,26,29.42,29.27,13,6,13,0.00
2012-8-29,99.3,83.1,70.0,56.8,50.6,45.4,57,35,18,29.33,29.15,13,7,13,0.00
2012-8-30,99.3,84.7,74.3,60.3,53.3,45.6,56,36,18,29.24,29.06,14,8,18,0.00
2012-8-31,106.9,86.3,75.7,68.8,57.0,44.2,72,42,14,29.39,29.15,4,1,4,0.00
2012-9-1,101.8,88.0,76.1,70.1,60.8,47.7,80,45,18,29.47,29.36,5,4,7,0.00
2012-9-2,104.7,88.1,74.3,68.4,57.4,45.3,79,41,15,29.47,29.30,13,6,17,0.00
2012-9-3,103.5,88.4,75.9,65.9,55.7,43.7,69,37,14,29.44,29.27,12,6,19,0.00
2012-9-4,106.9,88.9,75.9,67.9,58.1,39.9,72,41,12,29.39,29.21,13,6,15,0.00
2012-9-5,106.9,100.2,96.3,58.0,48.9,40.8,27,18,14,29.33,29.18,9,6,11,0.00
2012-9-6,108.7,100.0,89.8,49.2,39.8,32.8,25,14,8,29.30,29.21,11,5,13,0.00
2012-9-15,89.8,69.8,68.5,55.2,54.3,49.2,62,59,25,29.56,29.21,5,3,6,0.00
2012-9-16,73.9,68.3,64.8,66.2,60.4,54.5,98,77,61,29.53,29.39,5,2,6,0.00
2012-9-17,90.0,73.9,66.6,69.4,62.3,52.9,98,72,34,29.42,29.18,9,2,11,0.00
2012-9-18,88.0,72.3,59.7,65.1,48.7,23.3,98,55,11,29.50,29.33,13,5,17,0.00
2012-9-19,94.6,70.6,51.8,53.9,37.0,22.6,67,36,9,29.59,29.42,9,4,11,0.00
2012-9-20,81.3,63.4,57.6,50.7,47.6,44.9,71,58,30,29.53,29.44,11,4,13,0.00
2012-9-21,101.5,87.2,72.1,51.4,39.3,25.2,43,22,7,29.50,29.30,10,5,13,0.00
2012-9-22,103.3,80.7,60.3,51.6,41.3,24.5,67,32,7,29.53,29.39,7,3,10,0.00
2012-9-23,102.6,82.6,61.5,58.4,45.8,25.8,77,36,8,29.62,29.47,11,3,17,0.00
2012-9-24,99.3,90.0,77.4,52.9,37.9,25.7,42,19,8,29.50,29.36,17,9,19,0.00
2012-9-25,95.9,82.0,71.4,67.5,54.6,31.0,86,47,11,29.47,29.30,25,12,30,0.00
2012-9-26,96.8,86.8,77.9,55.4,47.6,39.8,46,28,16,29.47,29.36,15,7,16,0.00
2012-9-27,97.5,80.9,71.4,66.8,56.5,42.3,83,48,18,29.53,29.42,11,5,16,0.00
2012-9-28,101.7,78.5,66.6,63.2,57.6,44.8,85,55,17,29.50,29.36,12,4,15,0.00
2012-9-29,72.5,69.4,66.6,69.6,66.2,60.1,98,90,65,29.42,29.18,17,6,20,0.00
2012-9-30,73.9,65.5,59.2,66.0,56.8,41.2,98,77,35,29.30,29.18,17,8,21,0.00
2012-10-1,87.3,70.8,57.9,57.7,45.0,28.0,95,48,13,29.27,29.18,16,7,20,0.00
2012-10-2,84.2,70.1,63.9,53.2,46.5,37.3,67,45,20,29.39,29.24,10,5,13,0.00
2012-10-3,87.1,74.6,58.5,54.7,43.8,28.1,82,38,14,29.44,29.36,15,6,20,0.00
2012-10-4,88.9,74.8,61.5,60.9,54.5,48.0,92,52,29,29.56,29.44,15,7,20,0.00
2012-10-5,91.8,77.8,66.9,68.8,59.0,46.6,89,56,28,29.53,29.36,15,7,19,0.00
2012-10-6,58.8,53.7,48.0,47.4,39.3,33.0,80,59,41,29.68,29.53,13,8,20,0.00
2012-10-7,54.5,50.3,47.7,35.0,30.7,25.4,60,47,33,29.74,29.59,11,5,15,0.00
2012-10-8,72.9,55.5,37.9,41.3,32.9,28.3,80,47,22,29.71,29.47,9,3,12,0.00
2012-10-9,79.0,62.5,48.9,61.2,50.4,40.8,87,66,41,29.53,29.30,19,8,24,0.00
2012-10-10,74.7,67.1,61.0,71.6,61.9,57.2,98,84,59,29.56,29.39,10,4,11,0.00
2012-10-11,87.6,73.0,63.5,69.9,65.5,58.6,98,80,44,29.59,29.47,20,6,23,0.00
2012-10-12,87.1,74.9,68.0,71.0,65.3,57.1,98,76,37,29.62,29.50,14,6,17,0.00
2012-10-13,84.6,75.3,69.4,70.0,64.9,57.6,93,72,43,29.53,29.24,24,12,33,0.00
2012-10-14,84.6,70.8,61.9,68.4,57.3,41.2,98,68,22,29.50,29.33,18,5,24,0.00
2012-10-15,94.8,69.5,51.3,54.9,41.5,22.6,85,47,9,29.56,29.39,6,2,8,0.00
2012-10-16,75.6,64.3,56.5,61.8,51.4,43.4,92,65,38,29.44,29.12,21,8,25,0.03
2012-10-17,93.4,73.2,62.6,65.3,53.4,31.2,98,58,12,29.21,28.94,21,10,28,0.00
2012-10-18,84.9,65.1,49.1,41.0,26.0,13.2,51,27,8,29.47,29.18,10,4,13,0.00
2012-10-19,84.9,62.8,47.3,35.7,25.0,12.1,59,29,8,29.47,29.30,13,4,17,0.00
2012-10-20,87.1,68.7,49.5,62.9,47.6,27.5,69,48,33,29.36,29.15,25,9,29,0.00
2012-10-21,88.9,78.6,73.4,68.4,64.0,57.8,82,63,37,29.36,29.18,24,12,28,0.00
2012-10-22,90.0,76.7,70.0,69.8,64.5,55.1,96,69,34,29.44,29.30,17,10,24,0.00
2012-10-23,84.6,72.5,67.6,67.8,62.9,41.2,98,74,22,29.44,29.30,17,9,23,0.00
2012-10-24,69.4,68.8,68.0,60.9,59.8,59.1,78,73,71,29.39,29.36,9,6,11,0.00
2012-10-25,76.6,56.2,53.8,64.4,47.5,35.9,83,73,52,29.50,29.39,16,10,24,0.00
2012-10-26,55.4,51.4,47.5,42.3,35.4,27.5,82,55,37,29.71,29.47,18,10,22,0.00
2012-10-28,76.6,56.5,43.0,64.4,15.2,8.5,66,22,12,29.71,29.39,11,4,13,0.00
2012-10-29,78.4,53.5,35.2,29.8,19.8,9.0,57,32,10,29.77,29.53,9,2,10,0.00
2012-10-30,81.7,58.6,38.8,36.2,28.8,-99.9,71,37,12,29.59,29.36,10,4,15,0.03
2012-10-31,90.9,65.7,49.5,46.8,36.7,-99.9,75,41,10,29.47,29.36,8,3,10,0.00
2012-11-1,78.3,55.1,46.9,48.1,41.9,37.6,84,63,26,29.47,29.42,5,1,6,0.00
2012-11-2,77.7,66.5,64.8,52.3,50.8,42.0,64,59,28,29.47,29.39,6,5,8,0.00
2012-11-3,92.3,70.3,58.8,66.9,56.9,43.9,98,67,28,29.53,29.36,21,4,28,0.00
2012-11-4,82.4,63.3,52.2,55.9,43.2,37.1,96,51,24,29.56,29.47,8,3,10,0.00
2012-11-5,79.0,63.0,50.5,67.1,42.8,25.1,98,58,18,29.53,29.42,17,5,19,0.00
2012-11-6,79.3,56.0,44.8,51.8,35.3,26.7,76,49,17,29.62,29.39,7,3,10,0.00
2012-11-7,85.1,61.9,45.9,43.0,31.5,14.9,76,39,9,29.62,29.47,6,2,8,0.00
2012-11-8,81.7,64.9,49.8,54.3,43.7,32.1,68,47,31,29.59,29.42,20,9,26,0.00
2012-11-9,83.1,70.3,59.7,59.1,52.4,44.8,96,57,29,29.50,29.36,29,13,32,0.00
2012-11-10,80.6,70.6,61.3,60.7,53.3,45.8,97,58,32,29.47,29.30,26,14,34,0.00
2012-11-11,78.4,64.4,45.5,64.6,52.8,34.6,79,67,40,29.71,29.21,20,9,28,0.00
2012-11-12,62.8,45.6,34.5,35.6,16.8,5.2,69,36,13,29.95,29.68,12,5,17,0.00
2012-11-13,64.0,50.3,44.2,34.6,16.4,7.7,40,28,13,29.95,29.39,9,2,11,0.00
2012-11-14,71.6,51.4,38.8,34.6,19.5,10.8,50,32,12,29.89,29.39,8,2,9,0.00
2012-11-15,70.7,50.1,32.7,28.7,20.9,12.1,61,36,12,29.80,29.39,8,3,11,0.00
2012-11-16,62.6,54.7,46.8,34.6,27.6,19.9,35,35,35,29.80,29.39,1,1,2,0.00
2012-11-17,72.9,52.6,32.5,28.1,20.6,12.1,66,32,11,29.89,29.71,8,3,11,0.00
2012-11-18,72.0,54.4,37.6,33.6,26.7,18.5,68,38,14,29.77,29.59,14,5,18,0.00
2012-11-19,75.6,61.4,46.8,45.3,36.7,20.6,61,41,22,29.77,29.53,15,6,19,0.00
2012-11-20,89.6,66.7,46.8,48.8,43.0,20.6,81,47,18,29.77,29.53,6,2,8,0.00
2012-11-21,83.1,64.5,48.7,46.8,33.4,-99.9,90,34,16,29.62,29.56,10,4,11,0.00
2012-11-22,77.7,63.4,49.3,48.0,40.7,31.8,81,46,20,29.56,29.44,22,8,29,0.00
2012-11-23,70.3,58.2,44.4,51.8,27.1,7.1,86,38,12,29.86,29.53,20,8,25,0.00
2012-11-24,68.9,48.8,30.9,19.6,13.7,6.9,44,27,12,29.86,29.56,9,4,13,0.00
2012-11-25,75.6,57.9,40.3,49.5,31.5,17.9,65,39,21,29.56,29.27,22,10,27,0.00
2012-11-26,79.3,61.2,47.3,62.4,52.0,29.1,98,74,38,29.68,29.30,16,8,21,0.00
2012-11-27,63.9,47.6,35.4,32.5,28.5,23.1,79,49,28,29.86,29.65,15,6,20,0.00
2012-11-28,67.6,48.2,30.0,38.0,29.5,21.0,95,55,17,29.89,29.71,13,4,17,0.00
2012-11-29,69.3,54.2,40.6,47.6,34.0,28.4,74,49,24,29.71,29.53,16,8,20,0.00
2012-11-30,73.0,61.4,52.7,61.2,54.5,47.2,98,80,49,29.59,29.44,17,8,20,0.00
2012-12-1,82.8,71.3,64.4,65.3,57.4,48.6,98,65,32,29.53,29.36,22,11,28,0.00
2012-12-2,82.6,72.0,65.3,62.5,56.4,49.0,83,61,33,29.56,29.42,21,10,26,0.00
2012-12-3,81.9,70.6,64.4,61.5,53.9,46.4,88,59,31,29.47,29.33,25,12,30,0.00
2012-12-4,74.7,64.2,48.7,61.6,39.3,12.5,93,46,15,29.68,29.42,17,7,22,0.00
2012-12-5,74.7,53.4,41.7,44.3,34.9,22.2,87,52,32,29.71,29.47,8,4,11,0.00
2012-12-6,72.0,56.9,44.2,55.4,48.2,41.2,98,77,34,29.50,29.24,16,7,20,0.00
2012-12-7,77.4,63.0,55.6,58.9,53.8,47.2,98,75,35,29.33,29.18,15,6,17,0.00
2012-12-8,75.4,61.3,53.4,62.9,48.9,41.5,96,66,35,29.36,29.18,10,4,12,0.00
2012-12-9,74.8,62.9,42.1,65.8,50.1,12.9,97,66,30,29.44,29.18,20,10,25,0.00
2012-12-10,47.3,37.2,28.8,19.2,11.2,5.1,59,35,19,29.62,29.44,21,10,26,0.00
2012-12-11,60.6,36.4,21.4,16.7,7.5,-4.2,65,35,14,29.68,29.53,7,2,9,0.00
2012-12-12,60.8,40.5,21.4,17.8,10.1,4.7,57,32,14,29.80,29.62,11,4,14,0.00
2012-12-13,67.3,47.8,28.4,18.2,12.7,8.3,45,26,12,29.77,29.59,15,6,18,0.00
2012-12-14,61.2,55.0,46.2,59.2,36.5,17.6,97,53,31,29.65,29.27,26,10,30,0.00
2012-12-15,74.5,61.7,54.5,59.9,41.6,19.7,98,56,13,29.36,29.24,17,4,20,0.00
2012-12-16,77.5,58.6,50.4,43.9,36.2,18.5,73,48,13,29.27,29.09,9,3,11,0.00
2012-12-17,68.7,52.2,44.2,43.0,31.8,22.6,81,49,20,29.36,29.18,10,4,12,0.00
2012-12-18,81.3,57.9,38.8,45.8,28.9,14.9,73,41,9,29.30,29.15,13,6,17,0.00
2012-12-19,78.3,69.3,59.4,62.1,53.6,10.5,93,61,13,29.27,28.97,27,14,33,0.00
2012-12-20,59.4,44.9,35.8,21.1,9.8,-2.2,41,25,15,29.86,29.21,26,12,33,0.00
2012-12-21,70.5,46.8,28.2,15.9,9.8,-0.3,43,24,12,29.92,29.71,7,3,10,0.00
2012-12-22,66.0,50.6,33.1,42.7,24.2,8.9,58,36,21,29.77,29.44,21,7,27,0.00
2012-12-23,68.4,58.2,42.4,53.7,37.4,15.5,86,49,20,29.68,29.24,14,6,17,0.00
2012-12-24,64.2,44.8,32.0,25.0,21.7,14.3,65,42,16,29.47,29.18,10,4,13,0.00
2012-12-25,48.4,39.3,28.9,47.3,33.6,17.9,98,81,48,29.53,29.00,23,13,30,0.00
2012-12-26,37.6,27.8,22.1,19.2,15.6,11.0,79,61,42,29.71,29.53,24,8,30,0.00
2012-12-27,51.1,34.6,21.4,38.9,26.8,16.5,98,75,40,29.56,29.30,10,4,13,0.00
2012-12-28,45.5,37.7,30.4,40.1,32.4,17.4,98,82,55,29.65,29.27,19,8,25,0.00
2012-12-29,48.2,34.2,24.6,18.4,15.5,12.1,73,48,27,29.89,29.62,12,4,15,0.00
2012-12-30,49.3,39.1,23.0,23.4,17.2,10.1,73,43,21,29.92,29.62,13,6,13,0.00
2012-12-31,47.5,43.9,39.0,46.9,39.6,21.2,98,87,43,29.68,29.36,13,4,14,0.00
2013-1-1,45.5,41.5,36.7,45.0,36.6,27.8,98,83,68,29.71,29.47,14,7,17,0.00